Regional Weather Roundup
Issued by NWS

Home | Current Version | Previous Version | Text Only | Print | Product List | Glossary On
Versions: 1 2 3 4 5 6 7 8 9 10 11 12 13 14 15 16 17 18 19 20 21 22 23 24 25 26 27 28 29 30 31 32 33 34 35 36 37 38 39 40 41 42 43 44 45 46 47 48 49 50
000
ASUS43 KLSX 312359
RWRMO

WEATHER SUMMARY FOR MISSOURI
NATIONAL WEATHER SERVICE SPRINGFIELD MO
700 PM CDT SUN AUG 31 2014

NOTE: "FAIR" INDICATES FEW OR NO CLOUDS BELOW 12,000 FEET WITH NO
       SIGNIFICANT WEATHER AND/OR OBSTRUCTIONS TO VISIBILITY.
       CURRENT SKY AND/OR WEATHER CONDITIONS ARE NOT AVAILABLE FOR
       CHILLICOTHE AND FARMINGTON.

MOZ001>031-035>038-043-044-053-054-010100-
...NORTHERN AND WESTERN MISSOURI...

CITY           SKY/WX    TMP DP  RH WIND       PRES   REMARKS
KANSAS CTY INT MOCLDY    87  66  49 S16       29.71F
6HR MIN TEMP:  87; 6HR MAX TEMP:  93;

KANSAS C DTWN  CLEAR     91  65  41 S17G24    29.71F HX  93
6HR MIN TEMP:  89; 6HR MAX TEMP:  95; 6HR PCP: TRACE;

LEE`S SUMMIT   CLEAR     89  64  43 S12G23    29.74F HX  90
6HR MIN TEMP:  87; 6HR MAX TEMP:  92;

ST JOSEPH      MOCLDY    87  69  54 SE14      29.68F HX  91
6HR MIN TEMP:  86; 6HR MAX TEMP:  93;

CHILLICOTHE      N/A     86  69  56 SE8       29.77F HX  90
6HR MIN TEMP:  86; 6HR MAX TEMP:  90;

KIRKSVILLE     CLEAR     81  68  64 SE9       29.81F
6HR MIN TEMP:  81; 6HR MAX TEMP:  89;


$$
MOZ066>068-077>081-088>096-101>105-010100-
...SOUTHWEST MISSOURI...

CITY           SKY/WX    TMP DP  RH WIND       PRES   REMARKS
SPRINGFIELD    CLEAR     87  67  51 S15       29.86F HX  90
6HR MIN TEMP:  87; 6HR MAX TEMP:  93;

JOPLIN         CLEAR     88  65  46 S20G28    29.82F HX  90
6HR MIN TEMP:  88; 6HR MAX TEMP:  96;


$$
MOZ032>034-039>042-045>050-055>058-069>072-010100-
...CENTRAL MISSOURI...

CITY           SKY/WX    TMP DP  RH WIND       PRES   REMARKS
COLUMBIA       CLEAR     87  62  43 SE9       29.83F
6HR MIN TEMP:  87; 6HR MAX TEMP:  94;

JEFFERSON CITY CLEAR     87  65  47 SE7       29.82F
6HR MIN TEMP:  87; 6HR MAX TEMP:  93;

ROLLA          PTCLDY    84  66  54 SE7       29.87F
6HR MIN TEMP:  84; 6HR MAX TEMP:  90;

SEDALIA        CLEAR     89  64  43 SE13      29.80F HX  90
6HR MIN TEMP:  89; 6HR MAX TEMP:  95;

OSAGE BEACH    CLEAR     88  63  42 SE5       29.83F

$$
MOZ051-052-059>065-010100-
...EAST CENTRAL MISSOURI...

CITY           SKY/WX    TMP DP  RH WIND       PRES   REMARKS
ST LOUIS INTL  PTCLDY    86  70  58 S10       29.89F HX  90
6HR MIN TEMP:  86; 6HR MAX TEMP:  93;

SPIRIT OF STL  CLEAR     84  71  65 SE5       29.87F
6HR MIN TEMP:  84; 6HR MAX TEMP:  91;

ST CHARLES     CLEAR     84  72  67 SE7       29.87F
6HR MIN TEMP:  84; 6HR MAX TEMP:  91;


$$
MOZ072>076-082>087-097>100-106>115-010100-
...SOUTH CENTRAL AND SOUTHEAST MISSOURI...

CITY           SKY/WX    TMP DP  RH WIND       PRES   REMARKS
CAPE GIRARDEAU PTCLDY    82  73  74 S7        29.94F
6HR MIN TEMP:  79; 6HR MAX TEMP:  84;

FARMINGTON     PTCLDY    75  68  78 CALM      29.95F
                                      6HR PCP:  1.85;

POPLAR BLUFF   CLEAR     84  71  65 S5        29.92F
6HR MIN TEMP:  81; 6HR MAX TEMP:  87;

WEST PLAINS    CLEAR     84  67  56 S9        29.95F
6HR MIN TEMP:  84; 6HR MAX TEMP:  90;


$$



USA.gov is the U.S. government's official web portal to all federal, state and local government web resources and services.